This is the latest recevied weather packets stored in our database for station/object N4OOJ-13. If no packets are shown the sender has not sent any weather packets the latest 10 day(s).
| Time | Temp. | Humidity | Pressure | Rain* | Wind** | Luminosity | Snow |
|---|---|---|---|---|---|---|---|
| 1787881839 | 22.78° C | 99% | 1017.2 hPa | 2.54 mm | - | - | - |
| 1787881241 | 22.78° C | 99% | 1017 hPa | 3.05 mm | - | - | - |
| 1787880647 | 22.78° C | 99% | 1016.9 hPa | 3.3 mm | - | - | - |
| 1787880040 | 22.78° C | 99% | 1017 hPa | 3.56 mm | - | - | - |
| 1787879439 | 22.78° C | 99% | 1017.1 hPa | 4.32 mm | - | - | - |
| 1787878827 | 22.78° C | 99% | 1017.1 hPa | 4.32 mm | - | - | - |
| 1787878239 | 22.78° C | 99% | 1017 hPa | 4.06 mm | - | - | - |
| 1787877638 | 22.78° C | 99% | 1017.2 hPa | 3.3 mm | - | - | - |
| 1787877025 | 22.78° C | 99% | 1017.1 hPa | 2.79 mm | - | - | - |
| 1787876418 | 22.78° C | 99% | 1017.2 hPa | 2.29 mm | - | - | - |
| 1787875817 | 23.33° C | 99% | 1017.1 hPa | 1.52 mm | - | - | - |
| 1787875217 | 23.33° C | 99% | 1017.1 hPa | 1.02 mm | - | - | - |
| 1787874617 | 23.33° C | 99% | 1017.3 hPa | 0.76 mm | - | - | - |
| 1787874016 | 23.89° C | 99% | 1017.4 hPa | 0.51 mm | - | - | - |
| 1787873423 | 24.44° C | 99% | 1017.3 hPa | 0.25 mm | - | - | - |
| 1787872818 | 25° C | 99% | 1017.4 hPa | 0.25 mm | - | - | - |
| 1787872219 | 25° C | 99% | 1017.3 hPa | 0 mm | - | - | - |
| 1787871637 | 25.56° C | 98% | 1017.1 hPa | 0 mm | - | - | - |
| 1787871026 | 25.56° C | 97% | 1016.7 hPa | 0 mm | - | - | - |
| 1787870426 | 25.56° C | 95% | 1016.6 hPa | 0 mm | - | - | - |
| 1787869821 | 25.56° C | 94% | 1016.6 hPa | 0 mm | - | - | - |
| 1787869233 | 26.11° C | 95% | 1016.1 hPa | 0 mm | - | - | - |
| 1787868633 | 26.11° C | 97% | 1016 hPa | 0 mm | - | - | - |
| 1787868027 | 26.11° C | 97% | 1015.8 hPa | 0 mm | - | - | - |
| 1787867427 | 26.11° C | 97% | 1015.4 hPa | 0 mm | - | - | - |
* Rain latest hour (hover to see other rain measurements)
** Current wind speed in m/s (hover to see current wind gust speed)